Regional Weather Roundup
Issued by NWS

Home | Current Version | Previous Version | Graphics & Text | Print | Product List | Glossary On
Versions: 1 2 3 4 5 6 7 8 9 10 11 12 13 14 15 16 17 18 19 20 21 22 23 24 25 26 27
000
ASUS45 KCYS 210610
RWRWY

WYOMING REGIONAL WEATHER ROUNDUP
NATIONAL WEATHER SERVICE CHEYENNE WY
1200 AM MDT THU SEP 21 2017

NOTE:  "FAIR" INDICATES FEW OR NO CLOUDS BELOW 12,000 FEET
WITH NO SIGNIFICANT WEATHER AND/OR OBSTRUCTIONS TO VISIBILITY.

WYZ001-210700-
YELLOWSTONE NATIONAL PARK

CITY           SKY/WX    TMP DP  RH WIND       PRES   REMARKS
LK YELLOWSTONE   N/A     35  35 100 CALM      29.81S
6HR MIN TEMP:  34; 6HR MAX TEMP:  40; 6HR PCP:  0.13;

W YELLOWSTONE  NOT AVBL

$$
WYZ002>013-054>058-071-098>099-210700-
NORTHERN WYOMING

CITY           SKY/WX    TMP DP  RH WIND       PRES   REMARKS
JACKSON        CLOUDY    40  39  97 S8        29.81S WCI  34
CODY           CLOUDY    52  35  52 E5        29.73R
GREYBULL       CLOUDY    58  37  45 VRB7      29.66S
6HR MIN TEMP:  56; 6HR MAX TEMP:  69;

WORLAND        CLOUDY    58  35  42 VRB3      29.66F
6HR MIN TEMP:  55; 6HR MAX TEMP:  67;

SHERIDAN       MOCLDY    62  27  26 CALM      29.66F
6HR MIN TEMP:  56; 6HR MAX TEMP:  67;

BUFFALO        CLOUDY    55  26  32 SE8       29.72F
6HR MIN TEMP:  50; 6HR MAX TEMP:  63;

GILLETTE       CLOUDY    58  33  39 S9        29.70F
6HR MIN TEMP:  51; 6HR MAX TEMP:  66;

HULETT         CLOUDY    59  32  36 SE8       29.77F
NEWCASTLE      FAIR      63  28  27 E17       29.77F

$$
WYZ014>020-022>026-101>103-210700-
CENTRAL WYOMING

CITY           SKY/WX    TMP DP  RH WIND       PRES   REMARKS
BIG PINEY      CLOUDY    44  36  73 NE12      29.78F
6HR MIN TEMP:  44; 6HR MAX TEMP:  55; 6HR PCP: TRACE;

PINEDALE       CLOUDY    43  36  75 NW6       29.80F
DUBOIS         DRIZZLE   36  34  93 NW8       29.80F WCI  29
LANDER           N/A    N/A N/A N/A MISG      29.72S
RIVERTON       CLOUDY    54  33  45 S5        29.71F
6HR MIN TEMP:  51; 6HR MAX TEMP:  63;

CASPER         FAIR      49  35  58 E10       29.73F
6HR MIN TEMP:  44; 6HR MAX TEMP:  64;

DOUGLAS        FAIR      56  33  42 E10       29.75F
6HR MIN TEMP:  53; 6HR MAX TEMP:  70;


$$
WYZ021-027>030-104>119-210700-
SOUTHERN WYOMING

CITY           SKY/WX    TMP DP  RH WIND       PRES   REMARKS
EVANSTON       FAIR      49  37  63 N6        29.75F
6HR MIN TEMP:  49; 6HR MAX TEMP:  64; 6HR PCP: TRACE;

KEMMERER         N/A     45  34  65 N9        29.77S
FORT BRIDGER   FAIR      49  35  57 NE5       29.78F
ROCK SPRINGS   FAIR      52  35  52 VRB5      29.74F
6HR MIN TEMP:  50; 6HR MAX TEMP:  59;

DIXON          FAIR      61  29  30 S10G16    29.85F
RAWLINS        CLOUDY    45  37  73 CALM      29.81F
6HR MIN TEMP:  42; 6HR MAX TEMP:  64;

SARATOGA       FAIR      55  32  41 S18       29.84F
LARAMIE        FAIR      46  29  51 SE8       29.89F
6HR MIN TEMP:  46; 6HR MAX TEMP:  64;

CHEYENNE       FAIR      55  29  36 S15       29.87F
6HR MIN TEMP:  54; 6HR MAX TEMP:  69;

TORRINGTON     FAIR      52  35  52 E10       29.77F
6HR MIN TEMP:  52; 6HR MAX TEMP:  74;

PINE BLUFFS    FAIR      59  30  33 SE20G26   29.85F

$$




USA.gov is the U.S. government's official web portal to all federal, state and local government web resources and services.